SCP
0 0 0 -0 -0 -0 -0 -0 -0 -0 -0 -0 -0 -0 -0 -0 -0 -0 -0 -0 -0 -0 -0 0 0 0 0
0 0 0 0 0 0 -0 -0 -0 -0 -0 -0 -0 -0 -0 -0 -0 -0 0 0 0 -0 0 0 0 0 0
0 0 0 0 0 -0 -0 0 0 0 0 -0 -0 -0 -0 -0 -0 0 0 0 0 0 0 0 0 0 0
0 0 0 0 0 0 0 0 0 0 0 -0 -0 -0 -0 -0 0 0 0 0 0 0 0 0 0 0 0
0 0 0 0 0 0 0 0 0 0 0 -0 0 0 0 0 0 0 0 0 0 0 0 0 0 0 0
0 0 0 0 0 0 0 0 0 0 -0 -0 0 0 0 0 0 0 0 0 0 0 0 0 0 0 0
0 0 0 0 0 0 0 0 0 0 0 0 0 0 0 0 0 0 0 0 0 0 0 0 0 0 0
0 0 0 0 0 0 0 0 0 0 0 0 0 0 0 0 0 0 0 0 0 0 0 0 0 0 0
-0 0 0 0 0 0 0 0 0 0 0 0 0 0 0 0 0 0 0 0 0 0 0 0 0 0 0
0 0 0 0 0 0 0 0 0 0 0 0 0 0 0 0 0 0 0 0 0 0 0 0 0 0 0
0 0 0 0 0 0 0 0 0 0 0 0 0 0 0 0 0 0 0 0 0 0 0 -0 0 0 0
0 0 0 0 0 0 0 0 0 0 0 0 0 0 0 0 0 0 0 0 0 0 0 0 0 0 0
0 0 0 0 0 0 0 0 0 0 0 0 0 0 0 0 0 0 0 0 0 0 0 0 0 0 0
0 0 0 0 0 0 0 0 0 0 0 0 0 0 0 0 0 0 0 0 0 0 0 0 0 0 0
0 0 0 0 0 0 0 0 0 0 0 0 0 0 0 0 0 0 0 0 0 0 0 0 0 0 0
0 0 0 0 0 0 0 0 0 0 0 0 0 0 0 0 0 0 0 0 0 0 0 0 0 0 0
Wind_Speed_500mb
20 22 23 25 22 21 24 28 30 25 24 25 26 24 24 24 26 27 27 26 27 29 32 31 31 33 33
21 22 25 24 23 23 23 24 24 23 23 24 24 24 22 22 23 24 26 26 27 27 28 29 30 31 32
23 24 24 25 24 23 22 20 20 19 19 20 21 23 22 21 21 21 23 23 24 24 25 26 27 28 29
24 25 23 23 21 20 19 20 18 16 16 17 18 19 19 18 17 17 18 19 21 22 23 23 23 24 26
25 24 22 21 20 20 19 18 16 14 13 13 13 13 13 13 12 13 13 15 15 17 19 20 22 23 23
27 25 23 21 18 16 17 16 14 13 11 10 9 9 9 8 8 10 11 13 13 14 17 20 23 25 27
29 27 24 21 21 19 15 12 12 11 10 8 7 4 3 5 7 8 9 10 11 14 19 23 25 26 28
34 29 25 24 22 20 17 15 13 11 10 6 3 1 2 4 6 7 9 11 13 18 21 24 26 28 32
33 30 29 26 24 21 20 20 19 15 13 9 6 3 3 4 6 8 11 16 19 22 25 29 30 30 32
34 32 30 28 25 24 23 21 12 9 7 9 7 3 2 4 7 9 14 17 22 28 31 34 35 33 34
33 31 28 28 27 24 20 18 14 12 10 7 4 4 6 10 14 15 20 23 26 30 32 35 35 33 32
36 35 33 28 24 24 21 20 19 17 14 14 10 11 13 16 20 23 25 25 28 33 36 32 28 15 20
46 45 41 39 35 32 29 25 24 22 19 16 16 16 18 20 23 25 24 24 25 28 32 36 23 26 15
48 44 43 39 41 35 31 23 27 25 25 23 23 23 24 25 25 26 24 21 20 25 30 33 26 23 28
51 49 48 46 42 39 37 30 36 34 32 30 30 30 30 28 28 28 22 18 23 28 31 15 8 8 42
60 61 58 50 50 45 43 40 35 38 37 36 35 34 33 32 30 25 22 20 23 28 21 21 23 25 17
Wind_Direction_500mb
130 125 123 128 134 118 107 115 113 103 88 84 87 86 79 73 67 64 65 65 62 59 57 56 55 53 54
138 129 125 129 128 129 128 120 116 102 92 89 90 87 83 75 70 66 64 65 62 60 59 59 57 55 52
149 144 142 137 133 135 130 121 116 112 102 96 89 84 83 78 69 63 61 61 63 62 59 57 54 50 46
164 157 148 138 139 130 130 128 126 116 104 97 89 84 82 83 78 66 56 52 52 53 52 49 42 36 32
173 164 157 155 150 148 141 133 123 113 111 104 97 91 83 77 72 65 59 55 54 50 43 33 24 18 17
180 177 174 168 164 162 153 143 135 130 123 119 112 96 83 71 61 54 51 49 50 40 35 26 13 4 358
189 187 185 185 185 181 170 165 159 158 156 150 135 116 78 43 30 25 27 32 28 17 5 356 354 349 345
196 198 198 200 201 197 191 191 193 187 192 190 184 196 5 13 14 10 13 17 10 354 344 342 334 336 333
203 204 207 209 213 211 211 209 207 206 213 219 228 256 300 345 1 13 11 345 344 336 334 326 323 322 322
206 210 212 215 218 223 225 239 216 221 242 245 229 248 330 7 4 354 330 323 322 320 315 313 316 317 315
214 216 224 225 224 232 224 224 231 240 255 260 259 280 301 318 318 315 315 313 313 305 309 313 321 323 320
225 224 221 220 224 223 229 239 245 244 258 261 258 270 279 291 293 304 309 313 316 318 315 326 338 344 346
222 219 220 225 231 232 239 246 244 250 257 260 252 266 273 284 287 297 303 311 313 314 329 340 4 0 30
229 229 229 231 236 241 246 253 254 252 254 256 262 269 276 281 286 295 299 306 310 312 325 334 347 357 348
231 232 233 230 231 236 240 241 245 250 253 256 261 267 271 273 282 287 286 294 298 306 315 324 333 308 332
233 236 236 240 239 238 240 244 248 247 250 252 255 263 268 273 275 271 265 274 285 304 317 333 335 326 322
Wind_Speed_850mb
20 22 23 25 22 21 24 28 30 25 24 25 26 24 24 24 26 27 27 26 27 29 32 31 31 33 33
21 22 25 24 23 23 23 24 24 23 23 24 24 24 22 22 23 24 26 26 27 27 28 29 30 31 32
23 24 24 25 24 23 22 20 20 19 19 20 21 23 22 21 21 21 23 23 24 24 25 26 27 28 29
24 25 23 23 21 20 19 20 18 16 16 17 18 19 19 18 17 17 18 19 21 22 23 23 23 24 26
25 24 22 21 20 20 19 18 16 14 13 13 13 13 13 13 12 13 13 15 15 17 19 20 22 23 23
27 25 23 21 18 16 17 16 14 13 11 10 9 9 9 8 8 10 11 13 13 14 17 20 23 25 27
29 27 24 21 21 19 15 12 12 11 10 8 7 4 3 5 7 8 9 10 11 14 19 23 25 26 28
34 29 25 24 22 20 17 15 13 11 10 6 3 1 2 4 6 7 9 11 13 18 21 24 26 28 32
33 30 29 26 24 21 20 20 19 15 13 9 6 3 3 4 6 8 11 16 19 22 25 29 30 30 32
34 32 30 28 25 24 23 21 12 9 7 9 7 3 2 4 7 9 14 17 22 28 31 34 35 33 34
33 31 28 28 27 24 20 18 14 12 10 7 4 4 6 10 14 15 20 23 26 30 32 35 35 33 32
36 35 33 28 24 24 21 20 19 17 14 14 10 11 13 16 20 23 25 25 28 33 36 32 28 15 20
46 45 41 39 35 32 29 25 24 22 19 16 16 16 18 20 23 25 24 24 25 28 32 36 23 26 15
48 44 43 39 41 35 31 23 27 25 25 23 23 23 24 25 25 26 24 21 20 25 30 33 26 23 28
51 49 48 46 42 39 37 30 36 34 32 30 30 30 30 28 28 28 22 18 23 28 31 15 8 8 42
60 61 58 50 50 45 43 40 35 38 37 36 35 34 33 32 30 25 22 20 23 28 21 21 23 25 17
Wind_Direction_850mb
130 125 123 128 134 118 107 115 113 103 88 84 87 86 79 73 67 64 65 65 62 59 57 56 55 53 54
138 129 125 129 128 129 128 120 116 102 92 89 90 87 83 75 70 66 64 65 62 60 59 59 57 55 52
149 144 142 137 133 135 130 121 116 112 102 96 89 84 83 78 69 63 61 61 63 62 59 57 54 50 46
164 157 148 138 139 130 130 128 126 116 104 97 89 84 82 83 78 66 56 52 52 53 52 49 42 36 32
173 164 157 155 150 148 141 133 123 113 111 104 97 91 83 77 72 65 59 55 54 50 43 33 24 18 17
180 177 174 168 164 162 153 143 135 130 123 119 112 96 83 71 61 54 51 49 50 40 35 26 13 4 358
189 187 185 185 185 181 170 165 159 158 156 150 135 116 78 43 30 25 27 32 28 17 5 356 354 349 345
196 198 198 200 201 197 191 191 193 187 192 190 184 196 5 13 14 10 13 17 10 354 344 342 334 336 333
203 204 207 209 213 211 211 209 207 206 213 219 228 256 300 345 1 13 11 345 344 336 334 326 323 322 322
206 210 212 215 218 223 225 239 216 221 242 245 229 248 330 7 4 354 330 323 322 320 315 313 316 317 315
214 216 224 225 224 232 224 224 231 240 255 260 259 280 301 318 318 315 315 313 313 305 309 313 321 323 320
225 224 221 220 224 223 229 239 245 244 258 261 258 270 279 291 293 304 309 313 316 318 315 326 338 344 346
222 219 220 225 231 232 239 246 244 250 257 260 252 266 273 284 287 297 303 311 313 314 329 340 4 0 30
229 229 229 231 236 241 246 253 254 252 254 256 262 269 276 281 286 295 299 306 310 312 325 334 347 357 348
231 232 233 230 231 236 240 241 245 250 253 256 261 267 271 273 282 287 286 294 298 306 315 324 333 308 332
233 236 236 240 239 238 240 244 248 247 250 252 255 263 268 273 275 271 265 274 285 304 317 333 335 326 322